Dumas, TX

7:34 AM CST on February 07, 2016 (GMT -0600)
Moore County

Weather History for KDUX - November, 2011

Change the Weather History Date:

Monday, November 7, 2011

  Actual Average (KBGD) Record (KBGD)
Temperature  
Mean Temperature 45 °F 52 °F  
Max Temperature 53 °F 65 °F 85 °F (2009)
Min Temperature 37 °F 39 °F 21 °F (1991)
Degree Days  
Heating Degree Days 20 13  
Month to date heating degree days 84  
Since 1 July heating degree days 305  
Cooling Degree Days 0 0  
Month to date cooling degree days 0  
Year to date cooling degree days 1835  
Moisture  
Dew Point 36 °F    
Average Humidity 72    
Maximum Humidity 100    
Minimum Humidity 36    
Precipitation  
Precipitation 0.02 in 0.03 in 0.41 in (1987)
Month to date precipitation 0.25  
Year to date precipitation 20.36  
Snow  
Snow 0.00 in - 4.00 in (2000)
Month to date snowfall  
Since 1 July snowfall  
Since 1 September snowfall  
Snow Depth -    
Sea Level Pressure  
Sea Level Pressure 29.94 in    
Wind  
Wind Speed 7 mph (NE)    
Max Wind Speed 16 mph    
Max Gust Speed 18 mph    
Visibility 10 miles    
Events Rain    
T = Trace of Precipitation, MM = Missing Value Source: NWS Daily Summary

Daily Weather History Graph

Daily Weather History Graph

Search for Another Location

Airport or City:

Trip Planner

Search our weather history database for the weather conditions in past years. The results will help you decide how hot, cold, wet, or windy it might be!

Date:

Astronomy

Nov. 07, 2011 Rise Set
Actual Time 7:16 AM CST 5:46 PM CST
Civil Twilight 6:49 AM CST 6:13 PM CST
Nautical Twilight 6:18 AM CST 6:44 PM CST
Astronomical Twilight 5:48 AM CST 7:14 PM CST
Moon 3:55 PM CST 4:24 AM CST
Length of Visible Light 11h 24m
Length of Day
10h 30m
Waxing Gibbous, 92% of the Moon is Illuminated
Nov 7
Waxing Gibbous
Nov 10
Full
Nov 18
Last Quarter
Nov 25
New
Dec 2
First Quarter

Hourly Weather History & Observations

Time (CST) Temp. Windchill Dew Point Humidity Pressure Visibility Wind Dir Wind Speed Gust Speed Precip Events Conditions
12:15 AM 42.8 °F - 17.6 °F 36% 29.99 in 10.0 mi Calm Calm - N/A   Clear
12:35 AM 41.0 °F 38.0 °F 15.8 °F 36% 30.00 in 10.0 mi SSE 4.6 mph - N/A   Clear
12:55 AM 41.0 °F - 15.8 °F 36% 30.00 in 10.0 mi Calm Calm - N/A   Clear
1:15 AM 39.2 °F 35.0 °F 14.0 °F 36% 29.99 in 10.0 mi WSW 5.8 mph - N/A   Clear
1:35 AM 37.4 °F 32.1 °F 17.6 °F 45% 29.98 in 10.0 mi WSW 6.9 mph - N/A   Clear
1:55 AM 39.2 °F 32.5 °F 21.2 °F 49% 29.98 in 10.0 mi WSW 10.4 mph - N/A   Clear
2:15 AM 37.4 °F 32.8 °F 21.2 °F 52% 29.98 in 10.0 mi SSW 5.8 mph - N/A   Clear
2:35 AM 37.4 °F 32.1 °F 21.2 °F 52% 29.98 in 10.0 mi SW 6.9 mph - N/A   Clear
2:55 AM 37.4 °F 32.1 °F 21.2 °F 52% 29.98 in 10.0 mi SSW 6.9 mph - N/A   Clear
3:15 AM 41.0 °F 35.8 °F 23.0 °F 49% 29.97 in 10.0 mi SW 8.1 mph - N/A   Clear
3:35 AM 41.0 °F 36.4 °F 23.0 °F 49% 29.98 in 10.0 mi SW 6.9 mph - N/A   Clear
3:55 AM 41.0 °F 38.0 °F 23.0 °F 49% 29.97 in 10.0 mi WSW 4.6 mph - N/A   Scattered Clouds
4:15 AM 42.8 °F 40.1 °F 26.6 °F 53% 29.98 in 10.0 mi East 4.6 mph - N/A   Mostly Cloudy
4:35 AM 42.8 °F 39.3 °F 26.6 °F 53% 29.98 in 10.0 mi ESE 5.8 mph - N/A   Overcast
4:55 AM 44.6 °F 43.1 °F 26.6 °F 49% 29.98 in 10.0 mi East 3.5 mph - N/A   Overcast
5:15 AM 44.6 °F 43.1 °F 26.6 °F 49% 29.98 in 10.0 mi ESE 3.5 mph - N/A   Overcast
5:35 AM 44.6 °F - 30.2 °F 57% 29.98 in 10.0 mi Calm Calm - N/A Rain Light Rain
5:55 AM 42.8 °F 40.1 °F 32.0 °F 66% 29.98 in 10.0 mi NNW 4.6 mph - N/A Rain Light Rain
6:15 AM 41.0 °F 38.0 °F 32.0 °F 70% 29.98 in 10.0 mi North 4.6 mph - N/A   Overcast
6:35 AM 42.8 °F 40.1 °F 33.8 °F 70% 29.97 in 10.0 mi NE 4.6 mph - N/A   Overcast
6:55 AM 42.8 °F 38.0 °F 33.8 °F 70% 29.96 in 10.0 mi NNW 8.1 mph - N/A   Overcast
7:15 AM 42.8 °F 39.3 °F 33.8 °F 70% 29.97 in 10.0 mi NNW 5.8 mph - N/A Rain Light Rain
7:35 AM 42.8 °F 38.6 °F 35.6 °F 76% 29.96 in 10.0 mi North 6.9 mph - 0.01 in Rain Light Rain
7:55 AM 41.0 °F 36.4 °F 35.6 °F 81% 29.97 in 10.0 mi NNW 6.9 mph - 0.01 in   Mostly Cloudy
8:15 AM 41.0 °F 36.4 °F 35.6 °F 81% 29.96 in 10.0 mi North 6.9 mph - N/A   Scattered Clouds
8:35 AM 42.8 °F 39.3 °F 37.4 °F 81% 29.96 in 10.0 mi North 5.8 mph - N/A   Mostly Cloudy
8:55 AM 44.6 °F 40.2 °F 37.4 °F 76% 29.95 in 10.0 mi North 8.1 mph - N/A   Mostly Cloudy
9:15 AM 50.0 °F - 39.2 °F 66% 29.95 in 10.0 mi North 6.9 mph - N/A   Mostly Cloudy
9:35 AM 51.8 °F - 39.2 °F 62% 29.95 in 10.0 mi NNE 8.1 mph - N/A   Overcast
9:55 AM 50.0 °F - 39.2 °F 66% 29.96 in 10.0 mi North 8.1 mph - N/A   Overcast
10:15 AM 46.4 °F 43.5 °F 41.0 °F 81% 29.97 in 10.0 mi NW 5.8 mph - N/A Rain Light Rain
10:35 AM 44.6 °F 39.2 °F 41.0 °F 87% 29.96 in 10.0 mi NNW 10.4 mph - 0.01 in Rain Light Rain
10:55 AM 42.8 °F 40.1 °F 39.2 °F 87% 29.97 in 10.0 mi NE 4.6 mph - 0.01 in   Overcast
11:35 AM 46.4 °F 42.4 °F 41.0 °F 81% 29.96 in 10.0 mi NNE 8.1 mph - N/A   Mostly Cloudy
11:55 AM 48.2 °F - 41.0 °F 76% 29.95 in 10.0 mi NE 9.2 mph - N/A   Mostly Cloudy
12:15 PM 50.0 °F - 42.8 °F 76% 29.95 in 10.0 mi ENE 9.2 mph - N/A   Overcast
12:35 PM 50.0 °F - 42.8 °F 76% 29.95 in 10.0 mi ENE 10.4 mph - N/A   Overcast
12:55 PM 50.0 °F - 42.8 °F 76% 29.93 in 10.0 mi NE 8.1 mph - N/A   Overcast
1:15 PM 50.0 °F - 44.6 °F 82% 29.92 in 10.0 mi ENE 11.5 mph - N/A   Overcast
1:35 PM 51.8 °F - 44.6 °F 76% 29.91 in 10.0 mi East 12.7 mph - N/A   Overcast
1:55 PM 51.8 °F - 44.6 °F 76% 29.90 in 10.0 mi ENE 12.7 mph - N/A   Overcast
2:15 PM 53.6 °F - 46.4 °F 77% 29.89 in 10.0 mi East 12.7 mph - N/A   Mostly Cloudy
2:35 PM 51.8 °F - 46.4 °F 82% 29.89 in 10.0 mi East 9.2 mph - N/A   Overcast
3:15 PM 51.8 °F - 44.6 °F 76% 29.88 in 10.0 mi East 9.2 mph - N/A   Scattered Clouds
3:35 PM 51.8 °F - 44.6 °F 76% 29.88 in 10.0 mi ENE 10.4 mph - N/A   Scattered Clouds
3:55 PM 51.8 °F - 44.6 °F 76% 29.89 in 10.0 mi East 12.7 mph - N/A   Scattered Clouds
4:15 PM 50.0 °F - 44.6 °F 82% 29.88 in 10.0 mi ENE 13.8 mph - N/A   Mostly Cloudy
4:35 PM 50.0 °F - 44.6 °F 82% 29.88 in 10.0 mi East 13.8 mph - N/A   Overcast
4:55 PM 48.2 °F - 44.6 °F 87% 29.87 in 10.0 mi East 15.0 mph 18.4 mph N/A   Overcast
5:15 PM 46.4 °F 40.7 °F 44.6 °F 93% 29.86 in 10.0 mi ENE 12.7 mph 17.3 mph N/A   Overcast
5:35 PM 46.4 °F 40.7 °F 44.6 °F 93% 29.88 in 10.0 mi ENE 12.7 mph - N/A   Overcast
5:55 PM 46.4 °F 40.7 °F 44.6 °F 93% 29.87 in 10.0 mi ENE 12.7 mph - N/A   Overcast
6:15 PM 46.4 °F 42.4 °F 44.6 °F 93% 29.90 in 10.0 mi NE 8.1 mph - N/A   Overcast
6:35 PM 46.4 °F 41.9 °F 44.6 °F 93% 29.92 in 10.0 mi North 9.2 mph - N/A   Overcast
6:55 PM 46.4 °F 42.4 °F 44.6 °F 93% 29.91 in 7.0 mi NNE 8.1 mph - N/A   Overcast
7:15 PM 44.6 °F 39.7 °F 44.6 °F 100% 29.92 in 10.0 mi NE 9.2 mph - N/A   Overcast
7:35 PM 44.6 °F 39.2 °F 44.6 °F 100% 29.92 in 10.0 mi NE 10.4 mph - N/A   Overcast
7:55 PM 44.6 °F 38.8 °F 44.6 °F 100% 29.93 in 10.0 mi ENE 11.5 mph - N/A   Overcast
8:15 PM 44.6 °F 38.1 °F 42.8 °F 93% 29.93 in 4.0 mi NNE 13.8 mph 18.4 mph N/A   Overcast
8:35 PM 44.6 °F 37.8 °F 42.8 °F 93% 29.93 in 7.0 mi NNE 15.0 mph 18.4 mph N/A   Overcast
8:55 PM 44.6 °F 37.4 °F 42.8 °F 93% 29.92 in 7.0 mi NNE 16.1 mph - N/A   Overcast
9:15 PM 44.6 °F 37.4 °F 42.8 °F 93% 29.93 in 5.0 mi NNE 16.1 mph - N/A   Overcast
9:55 PM 44.6 °F 38.8 °F 42.8 °F 93% 29.95 in 4.0 mi NNE 11.5 mph - N/A   Overcast
10:15 PM 44.6 °F 38.8 °F 42.8 °F 93% 29.95 in 4.0 mi NNE 11.5 mph - N/A   Overcast
10:35 PM 44.6 °F 36.1 °F 42.8 °F 93% 29.89 in 5.0 mi NNE 21.9 mph 27.6 mph N/A Rain Light Rain
10:55 PM 42.8 °F 35.4 °F 42.8 °F 100% 29.91 in 5.0 mi NNE 15.0 mph 24.2 mph N/A   Overcast
11:15 PM 42.8 °F 35.8 °F 42.8 °F 100% 29.91 in 5.0 mi NE 13.8 mph 21.9 mph N/A   Overcast
11:35 PM 42.8 °F 37.0 °F 42.8 °F 100% 29.92 in 4.0 mi NE 10.4 mph 17.3 mph N/A   Overcast
11:55 PM 42.8 °F 36.6 °F 42.8 °F 100% 29.92 in 1.5 mi ENE 11.5 mph - N/A   Overcast